sat.trackr.live / text

‹ back to catalog

STARLINK-32104

NORAD 59695 · 2024-086P

PAYLOAD ACTIVE UNKNOWN

§ Identity

Operator
Country
US
Launch date
2024-05-08
Launch site
AFETR
Launch vehicle
Mass (kg)
RCS (m²)

Purposes: comms

External: N2YO · Heavens-Above · Gunter

§ Orbital elements

Epoch: 2026-05-24T21:26:17.390112Z

Period
94.27 min
Inclination
43.0047°
Eccentricity
0.0001332
Mean motion
15.27575422 rev/d
Perigee alt
482.1 km
Apogee alt
484.0 km
Semi-major
6,861.2 km
B*
2.5473e-5
RAAN
346.2532°
Arg perigee
258.0955°
Mean anomaly
101.9747°
Rev number
11,580

§ Raw data

STARLINK-321041 59695U 24086P   26144.89325683  .00000439  00000+0  25473-4 0  99952 59695  43.0047 346.2532 0001332 258.0955 101.9747 15.27575422115806

JSON: /api/v1/satellites/59695 · /tle

For live sub-satellite position, see the globe view (requires WebGL).

§ Visibility from observer

Set your observer location to see the next 7 days of passes ≥ 10°. The values pass through the URL so the page stays shareable.

No JS? Fill the form by hand. The geolocation button needs JavaScript.